Wind_Speed
13 14 9 2 3 2 3 3 2 4 2 3 7 4 5 3 4 7 0 16 13 30 28 33 30 26 23 21 19 16 14 12 11 10 8 8 8 7 7 8 7 8 7 6 6 6 5 5 8
17 13 3 2 2 4 3 3 6 1 6 9 6 7 5 7 4 5 3 23 16 30 30 31 32 28 26 24 21 19 17 15 13 13 12 11 11 11 12 12 11 10 10 10 9 8 8 7 8
13 4 2 2 3 6 3 7 4 4 10 3 3 3 4 4 4 3 6 26 19 28 30 29 31 31 28 26 24 22 19 18 16 16 15 14 13 13 14 14 14 13 12 13 14 11 12 11 9
6 4 3 4 10 6 4 4 4 10 2 3 2 6 3 5 4 6 12 26 21 26 30 28 33 33 31 28 26 23 21 19 17 16 16 16 15 16 15 16 16 15 15 15 17 14 16 14 14
2 2 4 5 7 6 9 13 7 7 5 5 2 3 4 4 10 6 16 26 25 25 32 28 33 34 33 30 26 24 22 19 17 16 16 15 16 16 16 16 17 17 18 17 19 16 16 18 17
3 0 4 8 10 8 7 11 4 6 2 4 3 3 5 3 7 10 18 27 24 27 32 30 33 35 33 30 27 25 22 19 17 15 14 15 16 14 14 15 15 16 17 17 18 16 18 19 16
4 3 5 7 9 8 7 1 5 5 1 2 1 4 4 5 7 9 16 24 25 26 30 32 30 34 34 31 28 25 22 19 17 15 14 13 15 14 14 14 14 15 16 17 18 18 20 18 15
2 3 4 5 7 8 5 5 3 1 0 2 4 3 7 9 9 11 16 19 22 24 27 32 31 25 26 25 28 26 22 19 18 17 16 15 14 14 14 14 14 15 14 15 18 20 20 20 20
2 6 11 8 9 8 1 3 1 2 7 5 6 11 7 9 6 7 13 17 18 21 26 27 25 26 25 22 21 25 21 19 19 17 17 15 13 13 13 15 17 15 14 15 15 17 18 18 20
8 11 15 15 12 11 3 6 6 6 11 20 15 14 10 8 9 12 19 23 26 26 27 26 28 24 21 20 19 17 16 15 15 14 14 13 13 14 15 16 17 16 14 14 15 16 15 14 15
10 19 24 20 15 9 15 13 10 13 19 21 17 19 18 15 15 16 22 28 32 30 24 27 27 25 23 20 18 16 15 14 15 16 16 15 15 14 14 14 13 11 12 12 13 14 14 14 11
14 19 23 25 18 14 20 16 17 19 27 24 21 18 19 19 16 17 23 28 28 27 24 24 30 30 26 18 21 20 18 17 15 15 17 17 16 16 17 15 13 13 11 11 10 9 11 12 12
19 22 19 20 23 20 19 22 22 23 28 23 21 19 19 19 17 23 27 28 27 29 25 23 27 28 29 27 22 21 19 16 14 15 18 19 17 16 16 16 15 13 11 11 10 10 10 10 11
11 23 24 20 18 20 20 27 16 22 24 20 19 22 22 21 21 24 19 28 27 29 24 25 28 30 29 27 24 21 17 15 14 16 17 18 17 16 15 15 15 14 13 11 10 9 9 10 11
15 16 14 14 18 14 12 23 23 27 24 18 20 21 21 22 22 19 26 27 33 28 24 29 28 30 29 26 23 18 15 14 15 16 18 18 18 19 17 15 14 14 13 13 9 8 8 9 9
10 9 16 14 19 12 12 25 16 18 13 15 17 17 17 21 19 25 26 26 18 20 22 26 29 30 29 26 21 16 14 14 16 18 18 19 19 18 14 14 13 11 12 10 9 9 9 10 10
9 16 18 14 10 4 16 22 12 11 11 15 19 20 19 20 21 24 21 20 18 23 25 29 28 29 29 24 18 14 13 14 16 16 16 17 16 15 13 12 11 10 11 10 9 9 10 10 9
16 12 11 12 10 18 21 25 18 16 16 17 20 20 19 19 24 22 15 13 17 22 29 35 37 33 27 20 15 12 12 14 15 13 12 13 12 12 12 13 12 11 10 9 9 9 9 8 9
19 19 23 19 14 13 19 21 14 15 20 20 20 20 19 19 18 10 4 7 15 20 27 31 28 26 24 16 11 8 9 11 10 10 10 10 11 11 12 11 10 11 10 9 9 9 10 9 8
24 23 20 16 12 10 15 23 17 14 19 21 22 21 20 19 12 2 2 7 13 19 20 26 26 26 20 15 11 6 6 7 8 9 8 7 6 8 9 10 11 12 9 9 10 11 10 8 9
27 28 22 21 9 11 12 22 16 21 14 15 20 19 18 16 10 3 7 10 13 17 23 26 25 23 19 14 10 7 5 4 4 3 1 2 4 6 8 9 9 9 10 10 10 11 12 10 8
26 24 22 21 11 15 4 18 14 19 22 21 21 15 15 10 3 6 9 12 16 20 24 22 22 21 17 14 9 6 3 3 2 1 2 2 2 3 5 8 9 9 7 6 8 11 12 10 12
19 17 18 20 17 16 18 13 16 12 19 23 19 15 7 1 4 9 11 16 19 23 22 21 20 18 15 13 8 5 3 2 1 2 2 3 2 3 4 7 8 7 6 8 10 13 12 11 11
12 12 16 12 12 14 19 15 14 16 20 16 13 9 2 4 7 9 13 20 23 21 20 19 18 15 14 11 8 3 2 2 2 1 2 3 1 4 5 5 6 5 6 8 10 12 11 10 9
19 14 6 7 7 10 15 11 18 14 16 15 15 9 4 7 10 11 14 17 23 22 20 19 17 15 13 10 7 3 2 2 1 1 3 1 4 6 7 6 6 6 7 8 9 11 11 9 7
26 21 9 9 7 9 7 10 8 19 21 21 17 8 5 9 11 13 16 17 23 22 20 19 16 14 12 10 7 3 2 0 1 1 2 1 4 7 8 7 4 4 7 7 9 9 9 7 4
23 18 15 3 1 4 6 6 11 15 9 11 14 7 8 11 13 16 17 20 21 21 20 19 15 12 11 9 6 4 2 0 0 0 2 4 6 9 8 8 5 5 7 6 6 7 7 7 8
19 20 11 9 11 8 6 4 9 9 14 10 9 10 10 12 14 16 17 19 20 20 19 16 14 12 10 9 6 4 2 1 2 3 3 6 8 9 8 7 5 5 5 5 6 7 7 7 8
12 22 8 9 5 6 3 5 7 12 14 14 10 12 15 16 16 17 17 19 20 19 18 15 13 11 9 8 6 5 3 3 4 3 2 5 8 8 8 8 6 6 7 6 7 7 7 8 9
20 20 21 10 11 5 2 4 3 8 2 1 8 11 13 15 15 17 16 19 19 18 17 15 12 10 9 8 6 5 5 3 4 4 4 6 7 8 8 8 7 6 7 7 8 8 7 8 8
Wind_Direction
152 143 145 118 214 272 239 227 262 223 201 171 135 188 218 283 196 296 294 181 175 181 182 192 197 195 197 200 203 205 209 211 215 220 225 229 237 236 242 245 257 265 268 266 267 266 261 249 265
153 144 132 135 214 219 213 224 213 221 326 292 218 202 211 262 235 273 190 178 177 182 185 190 199 200 201 204 207 209 212 219 221 224 224 229 234 234 232 232 240 250 266 271 267 263 260 251 253
149 166 210 230 215 223 206 200 221 307 302 244 258 245 174 212 206 244 201 175 175 185 189 194 198 202 205 206 207 212 217 223 224 225 227 228 237 239 240 239 244 247 249 256 257 252 259 258 250
166 171 108 238 238 251 249 188 288 318 110 178 246 266 238 242 181 207 188 180 181 186 191 195 199 203 208 210 211 212 218 223 225 227 229 230 236 242 245 247 253 252 251 250 250 251 256 256 254
153 134 228 246 246 249 239 265 258 290 303 306 212 266 263 252 226 225 188 187 189 189 196 201 202 206 210 213 214 216 221 225 227 228 229 235 243 245 252 253 259 259 256 256 252 252 249 253 254
133 120 224 243 242 252 260 247 230 250 219 292 183 257 259 285 230 214 193 195 195 196 196 202 206 209 212 214 216 220 223 226 230 233 235 237 247 251 255 261 264 265 264 263 261 252 257 255 255
192 186 258 274 275 267 247 199 199 169 251 143 162 263 283 324 284 246 211 200 202 202 199 204 206 211 214 215 217 220 224 228 233 236 239 243 248 251 255 262 268 273 270 265 261 257 254 255 255
174 211 247 237 272 277 202 182 149 183 26 22 192 246 301 325 325 226 219 210 208 207 205 206 206 205 207 214 220 222 222 229 235 238 242 247 249 251 262 265 280 278 271 264 260 259 258 260 258
150 226 242 241 227 244 256 190 59 343 298 264 256 269 297 302 295 220 213 218 218 212 210 207 205 205 205 208 215 222 225 231 235 240 240 241 244 250 253 259 276 276 271 268 265 259 260 258 258
186 227 232 232 233 264 276 293 308 282 287 280 282 272 274 284 269 246 219 221 217 218 211 208 209 208 206 205 210 210 219 226 229 231 232 235 243 250 253 260 273 273 269 264 263 263 264 268 250
202 228 234 258 247 251 283 278 297 290 284 280 291 296 304 289 274 242 245 236 227 222 220 209 208 208 208 205 205 210 218 223 232 241 245 242 247 252 251 257 270 265 269 266 260 262 262 262 259
241 229 241 251 260 271 271 298 277 280 270 278 289 285 284 288 279 248 248 243 232 223 223 214 208 208 208 207 207 215 222 230 240 245 248 245 249 251 250 253 259 258 260 256 261 261 258 262 257
227 236 238 251 264 265 277 272 271 284 276 278 281 282 271 273 266 262 251 254 240 228 218 212 209 204 204 206 209 216 224 235 239 244 246 247 247 248 251 255 249 249 253 254 259 257 260 255 246
224 236 242 246 257 262 266 269 273 267 270 285 285 278 279 271 268 272 253 246 233 228 214 210 208 203 199 202 209 216 227 232 235 239 243 245 247 252 252 253 248 247 244 246 247 253 252 247 238
240 245 230 234 240 252 272 267 248 256 271 273 276 279 281 276 276 255 252 240 234 224 204 204 201 198 197 201 205 216 223 227 236 244 248 250 252 254 250 247 244 241 239 241 246 250 245 240 232
217 226 235 231 233 242 228 265 268 262 272 285 284 281 282 281 278 274 262 247 238 208 190 199 195 195 193 192 202 211 219 233 246 253 257 256 254 250 243 246 247 242 226 231 238 239 236 231 224
215 238 224 231 189 171 198 264 256 271 284 282 282 287 286 286 284 270 268 258 215 201 190 190 186 188 184 189 196 206 221 240 252 259 258 257 252 242 242 247 245 228 215 225 231 232 229 225 219
220 233 227 225 214 234 241 254 274 280 287 285 286 287 284 277 272 289 277 232 202 191 194 190 186 178 179 180 189 207 229 248 253 256 254 257 244 234 240 251 241 223 217 218 221 223 217 217 212
245 239 238 232 221 243 253 265 270 288 296 287 286 283 276 271 285 296 290 203 184 180 180 176 161 170 170 167 178 206 227 244 249 259 269 259 241 232 245 241 227 218 215 217 218 219 214 209 196
231 243 240 247 244 253 274 274 286 286 277 280 281 280 272 279 273 280 129 164 185 174 169 161 160 168 172 173 181 188 211 240 260 272 279 269 235 233 244 230 221 216 206 209 210 210 204 201 192
226 232 237 246 264 257 284 277 278 280 277 279 277 270 269 267 279 180 147 161 167 162 159 155 161 166 170 170 178 193 231 254 266 279 315 285 252 244 240 224 211 200 207 211 204 208 198 185 186
232 224 242 246 247 257 228 283 267 284 288 281 279 275 272 276 211 161 150 155 156 159 153 155 156 161 166 173 168 183 207 252 245 284 287 271 279 234 229 210 196 199 209 209 203 195 196 193 183
236 219 224 231 234 259 249 267 283 260 272 275 275 270 268 221 165 152 154 150 157 153 153 152 153 158 164 166 167 169 203 228 219 250 275 262 260 183 171 172 188 205 202 198 198 190 199 204 198
198 232 217 225 235 243 253 239 265 257 248 264 262 246 36 85 118 135 147 144 149 152 151 151 154 158 163 167 168 173 184 165 204 252 286 265 240 186 171 170 176 175 189 198 192 192 202 208 213
193 182 173 203 212 248 236 222 243 253 244 248 267 270 114 133 137 146 153 152 153 156 155 155 158 160 167 170 169 170 167 181 230 275 315 328 187 167 156 164 171 172 196 195 187 192 199 207 217
191 189 191 192 205 228 190 221 249 234 247 239 243 258 155 155 150 151 160 156 157 159 158 160 161 161 169 170 171 165 164 154 255 284 346 194 175 152 154 147 143 156 160 169 181 190 194 198 204
194 207 196 226 14 254 172 250 278 248 249 220 228 210 182 169 157 158 161 165 163 162 166 162 161 162 164 168 166 161 144 278 310 24 127 135 142 155 148 144 148 155 150 155 155 167 169 175 179
189 171 191 215 216 230 184 239 240 214 227 225 219 199 172 162 160 161 168 168 168 167 167 162 165 161 164 164 162 151 137 145 104 125 137 128 135 151 151 150 156 150 143 150 144 147 159 166 166
182 189 191 193 217 216 245 232 216 228 219 198 202 177 167 165 161 165 170 171 168 168 166 163 163 161 161 165 162 155 132 129 130 134 141 151 141 153 161 163 158 145 155 146 149 148 149 146 151
193 191 189 197 191 184 210 249 50 249 199 208 126 144 157 153 157 168 169 169 169 172 166 166 164 169 170 165 162 159 141 128 123 108 117 132 137 150 166 167 158 152 140 135 137 134 142 147 140
Height
800 801 803 804 815 814 813 804 794 790 788 779 778 781 781 778 784 790 765 765 768 771 775 781 785 788 790 793 795 798 800 801 802 803 804 805 805 807 808 808 809 810 810 810 811 811 810 810 814
799 801 803 803 821 821 809 798 793 783 778 773 775 776 779 777 768 764 763 763 767 769 772 777 782 785 788 790 793 795 797 799 800 801 802 804 805 805 806 806 807 807 809 809 809 810 811 809 813
799 800 799 804 813 810 798 788 780 778 774 775 773 770 770 767 763 762 760 761 765 768 771 774 778 783 785 787 789 792 794 796 798 799 800 802 803 803 804 805 805 805 805 807 808 807 810 809 808
799 799 801 813 808 800 794 780 778 774 771 770 770 772 765 758 758 758 759 761 763 766 769 771 774 778 782 785 787 789 791 794 796 797 799 800 800 801 802 802 803 803 803 804 806 804 806 807 807
797 794 807 812 805 794 784 776 777 777 774 768 770 771 767 757 756 757 758 760 761 763 766 769 771 775 779 782 785 788 790 793 794 796 797 798 799 799 799 799 800 800 800 800 801 802 803 804 804
796 798 812 807 798 786 777 770 773 773 770 768 771 770 762 755 756 756 757 758 760 760 762 766 770 772 776 780 783 787 789 791 793 794 795 796 797 797 797 797 797 797 796 796 797 799 800 800 801
794 801 804 803 797 791 776 765 770 766 768 769 765 771 758 755 757 759 759 758 758 759 761 763 767 770 773 777 780 783 786 789 791 792 793 794 795 795 795 794 793 793 792 792 794 796 797 798 799
792 794 803 798 793 785 767 765 762 764 768 763 763 768 763 754 755 756 758 758 757 757 758 760 763 768 772 775 778 781 783 786 787 789 791 792 792 792 792 791 790 789 789 790 791 792 793 793 794
793 800 799 792 791 772 767 768 765 762 764 762 759 756 755 754 755 756 756 758 757 755 755 757 762 763 767 773 777 779 781 783 785 786 788 789 790 790 790 790 788 787 787 786 787 788 788 789 790
788 795 787 766 766 770 771 771 772 771 766 758 757 753 755 754 754 752 752 750 749 750 749 752 756 762 766 770 774 777 780 782 783 784 785 785 786 787 787 787 786 785 784 784 784 784 784 785 785
775 781 767 764 762 767 767 767 765 769 765 751 755 748 747 748 749 747 745 743 741 744 750 747 752 757 763 767 771 775 776 778 778 780 781 781 783 784 784 784 783 782 782 782 781 781 781 781 781
777 767 767 758 763 767 767 762 764 765 752 743 745 746 744 741 741 740 738 736 737 740 745 746 746 750 757 765 766 770 772 773 774 776 778 778 780 780 780 780 780 779 779 779 779 778 778 778 778
768 764 761 761 762 764 764 765 761 755 738 740 740 738 737 734 733 733 731 730 732 732 736 741 745 746 752 758 763 766 768 770 771 773 774 775 776 776 777 777 777 777 777 776 776 776 776 776 776
751 760 758 759 760 758 763 754 759 747 732 736 735 731 728 726 724 725 725 722 724 724 728 734 740 743 749 754 760 764 766 767 768 770 771 772 773 773 774 774 774 774 774 774 774 774 774 774 774
755 763 758 761 758 760 756 755 755 736 731 735 730 725 721 718 716 717 714 714 712 716 721 726 737 742 745 751 757 760 763 764 766 767 768 768 768 769 770 770 769 770 770 771 771 771 772 771 771
760 760 762 750 752 751 759 745 736 727 730 729 725 721 717 712 709 707 706 707 709 712 717 724 730 738 742 748 754 757 760 762 763 764 764 763 764 765 765 765 765 765 766 768 769 769 769 768 768
758 750 757 754 746 747 753 737 728 727 729 728 721 715 710 706 701 698 699 700 701 704 710 718 726 736 740 745 750 754 757 759 760 760 759 759 760 761 761 760 761 762 763 765 766 766 766 766 766
748 763 754 755 744 740 742 734 728 728 722 721 716 709 706 702 693 693 694 694 696 700 705 711 718 728 737 742 747 751 754 756 757 756 756 756 756 757 757 756 757 759 761 762 763 763 763 764 764
735 741 744 736 733 740 734 732 730 721 714 715 712 706 701 695 689 692 692 694 697 700 704 709 720 728 733 738 745 749 751 754 753 753 752 752 752 752 752 753 755 757 758 759 759 760 760 761 762
740 739 743 738 734 738 733 729 723 719 714 711 705 699 693 688 688 691 692 695 701 702 708 714 720 727 733 737 742 746 749 750 750 749 748 748 748 749 749 750 751 753 754 755 756 757 758 760 760
736 737 743 742 733 733 736 729 722 710 707 703 696 691 685 685 682 688 691 695 702 706 711 715 721 727 732 737 742 744 746 748 747 746 746 745 746 746 746 747 749 751 751 752 753 755 757 758 759
733 727 737 739 748 746 732 734 719 711 706 697 686 685 679 678 682 686 690 696 701 708 713 718 722 727 733 737 741 743 745 745 745 745 745 744 744 744 744 745 747 749 749 750 752 754 755 757 758
716 722 731 736 739 741 737 742 719 709 707 689 679 676 677 679 681 685 690 695 702 708 714 719 723 728 733 737 739 742 743 743 743 744 744 743 743 743 744 744 745 747 748 750 751 753 754 756 756
712 719 725 731 733 746 730 736 719 702 691 676 667 667 674 678 683 687 693 696 704 712 716 720 724 729 733 736 738 740 741 742 742 742 742 742 741 742 743 743 744 746 747 748 750 751 754 754 755
710 721 741 750 747 738 715 728 704 678 674 674 668 663 674 680 683 689 695 697 705 711 716 720 724 729 733 736 738 739 740 740 740 741 740 739 740 741 742 743 743 745 746 747 748 751 752 754 754
704 708 715 737 732 717 710 721 692 667 657 661 661 663 672 680 683 689 695 701 706 711 716 720 724 728 732 735 737 738 738 739 740 739 739 739 739 740 742 743 744 744 745 747 748 750 752 753 755
695 701 694 705 713 709 704 700 678 661 660 658 657 666 672 680 682 689 696 702 706 711 716 719 724 728 731 734 736 737 738 738 739 738 738 739 739 740 742 744 745 745 746 747 748 750 750 752 754
671 684 713 704 719 722 701 700 676 664 657 652 657 664 673 679 684 689 696 702 707 712 716 720 724 727 731 733 735 736 737 738 738 738 739 739 739 741 743 744 746 746 747 748 749 750 751 753 754
675 681 684 686 694 701 703 685 656 650 649 649 650 660 669 675 681 688 695 702 707 712 716 720 723 727 730 733 735 736 737 738 737 738 739 739 740 742 744 745 746 748 747 749 750 751 751 753 755
653 664 674 686 700 686 688 680 652 650 650 648 651 662 668 672 679 687 694 701 706 712 715 719 723 727 731 733 735 736 737 737 738 739 739 740 740 743 745 746 747 747 748 749 750 752 753 754 756